Location: Go�ngahuizen
(53.0821°N, 5.8849°E)
Time: 12:59:35
(UTC+00:00)

Cosmos 2154 Rocket - Pass Details

Date: 09 April 2020
Orbit: 965 x 997 km, 82.9° (Epoch: 24 May)

Event Time Altitude Azimuth Distance (km) Brightness Sun altitude
Rises 19:21:01 0° 348° (NNW) 3,732 7.6 -8.5°
Reaches altitude 10° 19:23:34 10° 348° (NNW) 2,778 7.0 -8.9°
Maximum altitude 19:29:57 79° 263° (W) 1,018 4.2 -9.7°
Drops below altitude 10° 19:36:15 10° 178° (S) 2,744 6.1 -10.5°
Sets 19:38:45 0° 177° (S) 3,685 6.7 -10.9°
